Regional Weather Roundup
Issued by NWS

Home | Current Version | Previous Version | Text Only | Print | Product List | Glossary On
Versions: 1 2 3 4 5 6 7 8 9 10 11 12 13 14 15 16 17 18 19 20 21 22 23 24 25 26 27 28 29 30 31 32 33 34 35 36 37 38 39 40 41 42 43 44 45 46 47 48 49 50
000
ASUS44 KOUN 041810
RWROK

WEATHER ROUNDUP FOR OKLAHOMA
NATIONAL WEATHER SERVICE NORMAN OK
100 PM CDT MON MAY 04 2015

NOTE: "FAIR" INDICATES FEW OR NO CLOUDS BELOW 12,000 FEET WITH NO
      SIGNIFICANT WEATHER AND/OR OBSTRUCTIONS TO VISIBILITY.

OKZ001>007-009>012-014-015-017-041900-
NORTHWEST OKLAHOMA AND THE PANHANDLE

CITY           SKY/WX    TMP DP  RH WIND       PRES   REMARKS
GAGE           SUNNY     80  59  48 S9        30.02F
6HR MIN TEMP:  60; 6HR MAX TEMP:  81;

GUYMON         MOSUNNY   74  54  49 VRB7      30.02F
ENID/WOODRING  PTSUNNY   77  66  69 S12G18    30.03S
$$

OKZ016-021>023-033>039-044-045-041900-
SOUTHWEST OKLAHOMA

CITY           SKY/WX    TMP DP  RH WIND       PRES   REMARKS
LAWTON/REGL    PTSUNNY   78  64  61 S17G23    30.05F
6HR MIN TEMP:  61; 6HR MAX TEMP:  79;

LAWTON/FT SILL PTSUNNY   78  66  68 S15       30.04F
FREDERICK      SUNNY     79  64  60 S16G23    30.02F
CLINTON        SUNNY     79  64  60 S17G25    30.05S
HOBART         MOSUNNY   78  65  63 S17G24    30.04F
ALTUS AFB      SUNNY     80  68  65 SE15      30.02F
$$

OKZ018>020-024>031-041900-
CENTRAL OKLAHOMA

CITY           SKY/WX    TMP DP  RH WIND       PRES   REMARKS
OKLAHOMA CITY  PTSUNNY   80  63  55 S17G24    30.06F
6HR MIN TEMP:  61; 6HR MAX TEMP:  80;

OKC/WILEY POST SUNNY     80  63  55 S21       30.05F
OKC/TINKER AFB MOSUNNY   77  63  62 S15G22    30.06F
STILLWATER     MOSUNNY   81  64  56 S16       30.05F
GUTHRIE        MOSUNNY   81  63  54 S17G38    30.05S
$$

OKZ008-013-054>072-041900-
NORTHEAST OKLAHOMA

CITY           SKY/WX    TMP DP  RH WIND       PRES   REMARKS
TULSA          PTSUNNY   81  62  52 S17       30.07F
6HR MIN TEMP:  65; 6HR MAX TEMP:  81;

TULSA/JONES    MOSUNNY   81  62  52 S15G22    30.08F
PONCA CITY     PTSUNNY   79  64  60 S8G20     30.04F
BARTLESVILLE   PTSUNNY   80  63  55 S12G20    30.07F
MUSKOGEE       PTSUNNY   80  63  55 S14       30.12F
$$

OKZ032-040>043-046>053-073>077-041900-
SOUTH CENTRAL/SOUTHEAST OKLAHOMA

CITY           SKY/WX    TMP DP  RH WIND       PRES   REMARKS
ARDMORE/DWNTWN MOSUNNY   77  59  53 S9G18     30.10F
MCALESTER      MOSUNNY   80  60  50 S10G22    30.12F
$$




USA.gov is the U.S. government's official web portal to all federal, state and local government web resources and services.